Chillicothe, MO

10:09 AM CDT on September 15, 2019 (GMT -0500)
Chillicothe

Weather History for KCDJ - July, 2019

Change the Weather History Date:

Thursday, July 25, 2019

  Actual Average (WUND) Record (WUND)
Temperature  
Mean Temperature 73 °F -  
Max Temperature 84 °F - - (-1)
Min Temperature 62 °F - - (-1)
Cooling Degree Days 8    
Growing Degree Days 23 (Base 50)    
Moisture  
Dew Point 63 °F    
Average Humidity 71    
Maximum Humidity 97    
Minimum Humidity 44    
Precipitation  
Precipitation 0.00 in - - ()
Sea Level Pressure  
Sea Level Pressure 30.12 in    
Wind  
Wind Speed 2 mph (South)    
Max Wind Speed 12 mph    
Max Gust Speed 21 mph    
Averages and records for this station are not official NWS values.
T = Trace of Precipitation, MM = Missing Value Source: NWS Daily Summary

Daily Weather History Graph

Daily Weather History Graph

Search for Another Location

Airport or City:

Astronomy

Jul. 25, 2019 Rise Set
Actual Time 6:06 AM CDT 8:34 PM CDT
Civil Twilight 5:35 AM CDT 9:05 PM CDT
Nautical Twilight 4:57 AM CDT 9:43 PM CDT
Astronomical Twilight 4:14 AM CDT 10:25 PM CDT
Moon 12:51 AM CDT (7/25) 2:17 PM CDT (7/25)
Length of Visible Light 15h 29m
Length of Day
14h 27m
Last Quarter, 44% of the Moon is Illuminated
Jul 25
Last Quarter
Jul 31
New
Aug 7
First Quarter
Aug 15
Full
Aug 23
Last Quarter

Hourly Weather History & Observations

Time (CDT) Temp. Heat Index Dew Point Humidity Pressure Visibility Wind Dir Wind Speed Gust Speed Precip Events Conditions
12:52 AM 64.9 °F - 62.1 °F 90% 30.12 in - Calm Calm - N/A   Unknown
1:52 AM 64.0 °F - 62.1 °F 93% 30.13 in - Calm Calm - N/A   Unknown
2:52 AM 63.0 °F - 62.1 °F 97% 30.15 in - Calm Calm - N/A   Unknown
3:52 AM 63.0 °F - 61.0 °F 93% 30.12 in - Calm Calm - N/A   Unknown
4:52 AM 63.0 °F - 61.0 °F 93% 30.13 in - Calm Calm - N/A   Unknown
5:52 AM 62.1 °F - 61.0 °F 96% 30.14 in - Calm Calm - N/A   Unknown
6:52 AM 63.0 °F - 62.1 °F 97% 30.15 in - Calm Calm - N/A   Unknown
7:52 AM 70.0 °F - 66.0 °F 87% 30.16 in - Calm Calm - N/A   Unknown
8:52 AM 75.0 °F - 64.0 °F 69% 30.17 in - Calm Calm - N/A   Unknown
9:52 AM 77.0 °F - 64.9 °F 66% 30.16 in - SSW 6.9 mph - N/A   Unknown
10:52 AM 81.0 °F 82.2 °F 63.0 °F 54% 30.16 in - SSW 8.1 mph - N/A   Unknown
11:52 AM 81.0 °F 81.6 °F 60.1 °F 49% 30.14 in - South 9.2 mph 17.3 mph N/A   Unknown
12:52 PM 82.0 °F 82.4 °F 60.1 °F 47% 30.13 in - SSW 8.1 mph - N/A   Unknown
1:52 PM 84.9 °F 85.0 °F 61.0 °F 44% 30.12 in - South 11.5 mph 20.7 mph N/A   Unknown
2:52 PM 84.0 °F 84.4 °F 61.0 °F 46% 30.12 in - SSE 8.1 mph - N/A   Unknown
3:52 PM 84.0 °F 84.5 °F 62.1 °F 47% 30.11 in - Variable 5.8 mph - N/A   Unknown
4:52 PM 81.0 °F 81.6 °F 60.1 °F 49% 30.10 in - SSW 6.9 mph - N/A   Unknown
5:52 PM 81.0 °F 81.9 °F 62.1 °F 52% 30.10 in - South 5.8 mph - N/A   Unknown
6:52 PM 79.0 °F - 64.9 °F 62% 30.09 in - South 3.5 mph - N/A   Unknown
7:52 PM 75.9 °F - 66.9 °F 74% 30.11 in - Calm Calm - N/A   Unknown
8:52 PM 73.9 °F - 66.9 °F 79% 30.09 in - Calm Calm - N/A   Unknown
9:52 PM 73.9 °F - 68.0 °F 82% 30.09 in - Calm Calm - N/A   Unknown
10:52 PM 73.9 °F - 66.0 °F 76% 30.09 in - Calm Calm - N/A   Unknown
11:52 PM 75.0 °F - 66.0 °F 73% 30.09 in - South 3.5 mph - N/A   Unknown